This is the latest recevied weather packets stored in our database for station/object N4TLC. If no packets are shown the sender has not sent any weather packets the latest 10 day(s).
| Time | Temp. | Humidity | Pressure | Rain* | Wind** | Luminosity | Snow |
|---|---|---|---|---|---|---|---|
| 1777935070 | 26.11° C | 28% | 1015.1 hPa | 0 mm | - | 142 W/m² | - |
| 1777934766 | 26.67° C | 27% | 1015.2 hPa | 0 mm | - | 160 W/m² | - |
| 1777934463 | 26.67° C | 27% | 1015.3 hPa | 0 mm | - | 175 W/m² | - |
| 1777934160 | 26.67° C | 28% | 1015.3 hPa | 0 mm | - | 191 W/m² | - |
| 1777933856 | 26.67° C | 27% | 1015.3 hPa | 0 mm | - | 209 W/m² | - |
| 1777933553 | 26.67° C | 27% | 1015.2 hPa | 0 mm | - | 227 W/m² | - |
| 1777933250 | 26.67° C | 27% | 1015.3 hPa | 0 mm | - | 246 W/m² | - |
| 1777932948 | 26.11° C | 28% | 1015.5 hPa | 0 mm | - | 263 W/m² | - |
| 1777932644 | 26.11° C | 28% | 1015.5 hPa | 0 mm | - | 288 W/m² | - |
| 1777932341 | 26.11° C | 28% | 1015.3 hPa | 0 mm | - | 309 W/m² | - |
| 1777932038 | 26.11° C | 28% | 1015.1 hPa | 0 mm | - | 329 W/m² | - |
| 1777931734 | 26.11° C | 28% | 1015.5 hPa | 0 mm | - | 351 W/m² | - |
| 1777931432 | 26.67° C | 29% | 1015.2 hPa | 0 mm | - | 372 W/m² | - |
| 1777931127 | 26.67° C | 28% | 1015.3 hPa | 0 mm | - | 397 W/m² | - |
| 1777930824 | 26.67° C | 28% | 1015.2 hPa | 0 mm | - | 419 W/m² | - |
| 1777930521 | 26.11° C | 30% | 1015.3 hPa | 0 mm | - | 442 W/m² | - |
| 1777930218 | 26.11° C | 29% | 1015.4 hPa | 0 mm | - | 461 W/m² | - |
| 1777929913 | 26.11° C | 29% | 1015.3 hPa | 0 mm | - | 482 W/m² | - |
| 1777929611 | 26.67° C | 29% | 1015.3 hPa | 0 mm | - | 502 W/m² | - |
| 1777929308 | 26.67° C | 29% | 1015.1 hPa | 0 mm | - | 519 W/m² | - |
| 1777929005 | 26.67° C | 28% | 1015.3 hPa | 0 mm | - | 539 W/m² | - |
| 1777928702 | 26.67° C | 29% | 1015.4 hPa | 0 mm | - | 561 W/m² | - |
| 1777928398 | 26.67° C | 29% | 1015.2 hPa | 0 mm | - | 581 W/m² | - |
| 1777928096 | 26.67° C | 29% | 1015.2 hPa | 0 mm | - | 601 W/m² | - |
| 1777927794 | 26.11° C | 30% | 1015.4 hPa | 0 mm | - | 617 W/m² | - |
* Rain latest hour (hover to see other rain measurements)
** Current wind speed in m/s (hover to see current wind gust speed)